Satellite: NOAA-17
Catalog number: 27453
Epoch time:      11012.77805036
Element set:    0144
Inclination:      098.4029 deg
RA of node:       059.4625 deg
Eccentricity:    0.0010810
Arg of perigee:   242.9298 deg
Mean anomaly:     117.0771 deg
Mean motion:   14.24227228 rev/day
Decay rate:       1.37e-06 rev/day^2
Epoch rev:           44453
Checksum:              287

Satellite: NOAA-18
Catalog number: 28654
Epoch time:      11012.78395885
Element set:    0629
Inclination:      098.9778 deg
RA of node:       323.7135 deg
Eccentricity:    0.0014230
Arg of perigee:   179.5663 deg
Mean anomaly:     180.5532 deg
Mean motion:   14.11425538 rev/day
Decay rate:       1.23e-06 rev/day^2
Epoch rev:           29100
Checksum:              314

Satellite: NOAA-19
Catalog number: 33591
Epoch time:      11012.81784686
Element set:    0824
Inclination:      098.8125 deg
RA of node:       315.7115 deg
Eccentricity:    0.0014889
Arg of perigee:   057.6456 deg
Mean anomaly:     302.6156 deg
Mean motion:   14.11121384 rev/day
Decay rate:       3.88e-06 rev/day^2
Epoch rev:           09947
Checksum:              324

/EX
SB KEPS @ AMSAT  $ORB11013.M
Orbital Elements  11013.MISC

HR AMSAT ORBITAL ELEMENTS FOR MANNED AND MISCELLANEOUS SATELLITES
FROM WA5QGD FORT WORTH,TX January 13, 2011
Send Subscribe/unsubscribe to KEPS at http://www.amsat.org/mailman/listinfo/kep
BID: ORB11013.M
TO ALL RADIO AMATEURS BT

Satellite: HUBBLE
Catalog number: 20580
Epoch time:      11011.15833349
Element set:     699
Inclination:      028.4718 deg
RA of node:       322.0136 deg
Eccentricity:    0.0003433
Arg of perigee:   245.5637 deg
Mean anomaly:     114.4619 deg
Mean motion:   15.01138125 rev/day
Decay rate:       6.12e-06 rev/day^2
Epoch rev:           93603
Checksum:              263

Satellite: ISS
Catalog number: 25544
Epoch time:      11013.87834491
Element set:     636
Inclination:      051.6444 deg
RA of node:       231.9850 deg
Eccentricity:    0.0005243
Arg of perigee:   180.6343 deg
Mean anomaly:     008.4322 deg
Mean motion:   15.71951205 rev/day
Decay rate:    1.00464e-03 rev/day^2
Epoch rev:           69661
Checksum:              280

Satellite: CO-58
Catalog number: 28895
Epoch time:      11012.63529875
Element set:    0775
Inclination:      097.9881 deg
RA of node:       254.8322 deg
Eccentricity:    0.0017817
Arg of perigee:   352.4169 deg
Mean anomaly:     007.6808 deg
Mean motion:   14.59994104 rev/day
Decay rate:       3.38e-06 rev/day^2
Epoch rev:           27754
Checksum:              360

Satellite: FALCON
Catalog number: 30776
Epoch time:      11012.94000082
Element set:    0000
Inclination:      035.4322 deg
RA of node:       210.4861 deg
Eccentricity:    0.0001243
Arg of perigee:   258.4188 deg
Mean anomaly:     101.6389 deg
Mean motion:   15.04061827 rev/day
Decay rate:       8.96e-06 rev/day^2
Epoch rev:           21165
Checksum:              247

Satellite: MAST
Catalog number: 31126
Epoch time:      11013.51074655
Element set:      58
Inclination:      097.9122 deg
RA of node:       049.3528 deg
Eccentricity:    0.0093698
Arg of perigee:   292.5694 deg
Mean anomaly:     066.5621 deg
Mean motion:   14.53663465 rev/day
Decay rate:       -4.0e-08 rev/day^2
Epoch rev:           19861
Checksum:              308

Satellite: CAPE1
Catalog number: 31130
Epoch time:      11012.52427126
Element set:    0080
Inclination:      097.9147 deg
RA of node:       045.4343 deg
Eccentricity:    0.0101641
Arg of perigee:   305.0715 deg
Mean anomaly:     054.0985 deg
Mean motion:   14.52278065 rev/day
Decay rate:        4.2e-07 rev/day^2
Epoch rev:           19804
Checksum:              254

Satellite: COMPASS
Catalog number: 32787
Epoch time:      11012.33973801
Element set:    0881
Inclination:      097.8680 deg
RA of node:       078.9442 deg
Eccentricity:    0.0015269
Arg of perigee:   328.1661 deg
Mean anomaly:     031.8649 deg
Mean motion:   14.82108497 rev/day
Decay rate:       6.02e-06 rev/day^2
Epoch rev:           14647
Checksum:              319

Satellite: AAUSAT2
Catalog number: 32788
Epoch time:      11012.65911588
Element set:    0870
Inclination:      097.8688 deg
RA of node:       079.4368 deg
Eccentricity:    0.0014930
Arg of perigee:   328.2611 deg
Mean anomaly:     031.7666 deg
Mean motion:   14.82266737 rev/day
Decay rate:        3.5e-07 rev/day^2
Epoch rev:           14653
Checksum:              328

Satellite: DO-64
Catalog number: 32789
Epoch time:      11013.71911106
Element set:     887
Inclination:      097.8773 deg
RA of node:       081.2237 deg
Eccentricity:    0.0014772
Arg of perigee:   322.0285 deg
Mean anomaly:     037.9870 deg
Mean motion:   14.82542557 rev/day
Decay rate:       4.51e-06 rev/day^2
Epoch rev:           14669
Checksum:              324

Satellite: CO-66
Catalog number: 32791
Epoch time:      11012.19201465
Element set:    0872
Inclination:      097.8696 deg
RA of node:       078.7807 deg
Eccentricity:    0.0015668
Arg of perigee:   327.3585 deg
Mean anomaly:     032.6651 deg
Mean motion:   14.81852837 rev/day
Decay rate:       -2.0e-08 rev/day^2
Epoch rev:           14640
Checksum:              325

